This is the latest recevied weather packets stored in our database for station/object PA2JOK. If no packets are shown the sender has not sent any weather packets the latest 10 day(s).
| Time | Temp. | Humidity | Pressure | Rain* | Wind** | Luminosity | Snow |
|---|---|---|---|---|---|---|---|
| 1777582082 | 14.44° C | 35% | 1023.4 hPa | 0 mm | - | - | - |
| 1777581183 | 15° C | 34% | 1023.4 hPa | 0 mm | - | - | - |
| 1777580283 | 15° C | 33% | 1023.4 hPa | 0 mm | - | - | - |
| 1777579383 | 15.56° C | 32% | 1023.4 hPa | 0 mm | - | - | - |
| 1777578483 | 15.56° C | 31% | 1023.2 hPa | 0 mm | - | - | - |
| 1777577583 | 16.11° C | 30% | 1023.1 hPa | 0 mm | - | - | - |
| 1777576683 | 16.67° C | 29% | 1023.2 hPa | 0 mm | - | - | - |
| 1777575783 | 16.67° C | 29% | 1022.9 hPa | 0 mm | - | - | - |
| 1777574883 | 17.22° C | 28% | 1022.9 hPa | 0 mm | - | - | - |
| 1777573983 | 17.22° C | 28% | 1022.7 hPa | 0 mm | - | - | - |
| 1777573083 | 17.78° C | 27% | 1022.7 hPa | 0 mm | - | - | - |
| 1777572183 | 18.33° C | 26% | 1022.9 hPa | 0 mm | - | - | - |
| 1777571283 | 18.33° C | 24% | 1022.8 hPa | 0 mm | - | - | - |
| 1777570383 | 18.33° C | 24% | 1022.8 hPa | 0 mm | - | - | - |
| 1777569483 | 18.89° C | 24% | 1022.9 hPa | 0 mm | - | - | - |
| 1777568583 | 18.89° C | 23% | 1022.7 hPa | 0 mm | - | - | - |
| 1777567683 | 18.89° C | 23% | 1022.8 hPa | 0 mm | - | - | - |
| 1777566783 | 18.89° C | 22% | 1022.9 hPa | 0 mm | - | - | - |
| 1777565883 | 18.89° C | 22% | 1023.1 hPa | 0 mm | - | - | - |
| 1777564983 | 18.89° C | 21% | 1023.6 hPa | 0 mm | - | - | - |
| 1777564083 | 18.89° C | 22% | 1023.1 hPa | 0 mm | - | - | - |
| 1777563183 | 18.89° C | 21% | 1023.2 hPa | 0 mm | - | - | - |
| 1777562283 | 18.89° C | 21% | 1023.3 hPa | 0 mm | - | - | - |
| 1777561383 | 18.33° C | 21% | 1023.5 hPa | 0 mm | - | - | - |
| 1777560482 | 18.33° C | 20% | 1023.6 hPa | 0 mm | - | - | - |
* Rain latest hour (hover to see other rain measurements)
** Current wind speed in m/s (hover to see current wind gust speed)